Pittsfield, IL

4:38 AM CST on February 23, 2017 (GMT -0600)
Pittsfield Penstone Municipal

Weather History for KPPQ - September, 2013

Change the Weather History Date:

Sunday, September 22, 2013

  Actual Average (KUIN) Record (KUIN)
Temperature  
Mean Temperature 60 °F -  
Max Temperature 73 °F 73 °F 96 °F (1937)
Min Temperature 46 °F 51 °F 34 °F (1995)
Degree Days  
Heating Degree Days 6    
Growing Degree Days 10 (Base 50)    
Moisture  
Dew Point 49 °F    
Average Humidity 73    
Maximum Humidity 92    
Minimum Humidity 42    
Precipitation  
Precipitation 0.00 in - - ()
Sea Level Pressure  
Sea Level Pressure 29.99 in    
Wind  
Wind Speed 1 mph (ENE)    
Max Wind Speed 8 mph    
Max Gust Speed -    
Visibility 10 miles    
Events      
Averages and records for this station are not official NWS values.
T = Trace of Precipitation, MM = Missing Value Source: NWS Daily Summary

Daily Weather History Graph

Daily Weather History Graph

Search for Another Location

Airport or City:

Trip Planner

Search our weather history database for the weather conditions in past years. The results will help you decide how hot, cold, wet, or windy it might be!

Date:

Astronomy

Sep. 22, 2013 Rise Set
Actual Time 6:50 AM CDT 6:59 PM CDT
Civil Twilight 6:24 AM CDT 7:26 PM CDT
Nautical Twilight 5:52 AM CDT 7:58 PM CDT
Astronomical Twilight 5:20 AM CDT 8:29 PM CDT
Moon 8:50 PM CDT (9/22) 10:10 AM CDT (9/22)
Length of Visible Light 13h 02m
Length of Day
12h 08m
Waning Gibbous, 88% of the Moon is Illuminated
Sep 22
Waning Gibbous
Sep 26
Last Quarter
Oct 4
New
Oct 11
First Quarter
Oct 18
Full

Hourly Weather History & Observations

Time (CDT) Temp. Dew Point Humidity Pressure Visibility Wind Dir Wind Speed Gust Speed Precip Events Conditions
12:15 AM 51.4 °F 48.6 °F 90% 29.97 in 10.0 mi Calm Calm - N/A   Clear
12:35 AM 50.9 °F 48.6 °F 92% 29.96 in 10.0 mi Calm Calm - N/A   Clear
12:55 AM 50.9 °F 48.2 °F 90% 29.97 in 10.0 mi Calm Calm - N/A   Clear
1:15 AM 50.7 °F 48.0 °F 90% 29.97 in 10.0 mi Calm Calm - N/A   Clear
1:35 AM 49.8 °F 47.1 °F 90% 29.98 in 10.0 mi Calm Calm - N/A   Clear
1:55 AM 50.5 °F 47.3 °F 89% 29.97 in 10.0 mi Calm Calm - N/A   Clear
2:15 AM 50.2 °F 47.1 °F 89% 29.97 in 10.0 mi Calm Calm - N/A   Clear
2:35 AM 49.5 °F 47.1 °F 92% 29.97 in 10.0 mi Calm Calm - N/A   Clear
2:55 AM 49.1 °F 46.4 °F 90% 29.97 in 10.0 mi Calm Calm - N/A   Clear
3:15 AM 48.7 °F 46.4 °F 92% 29.97 in 10.0 mi Calm Calm - N/A   Clear
3:35 AM 48.4 °F 45.7 °F 90% 29.97 in 10.0 mi Calm Calm - N/A   Clear
3:55 AM 48.6 °F 46.4 °F 92% 29.97 in 10.0 mi Calm Calm - N/A   Clear
4:15 AM 48.4 °F 45.7 °F 90% 29.98 in 10.0 mi Calm Calm - N/A   Clear
4:35 AM 48.2 °F 45.9 °F 92% 29.99 in 10.0 mi Calm Calm - N/A   Clear
4:55 AM 48.0 °F 45.3 °F 90% 29.99 in 10.0 mi Calm Calm - N/A   Clear
5:15 AM 47.3 °F 44.6 °F 90% 29.99 in 10.0 mi Calm Calm - N/A   Clear
5:35 AM 47.3 °F 44.8 °F 91% 30.00 in 10.0 mi Calm Calm - N/A   Clear
5:55 AM 47.5 °F 45.0 °F 91% 30.00 in 10.0 mi Calm Calm - N/A   Clear
6:15 AM 46.9 °F 44.4 °F 91% 30.00 in 10.0 mi Calm Calm - N/A   Clear
6:35 AM 46.9 °F 44.6 °F 92% 30.01 in 10.0 mi Calm Calm - N/A   Clear
6:55 AM 46.4 °F 44.1 °F 92% 30.01 in 10.0 mi Calm Calm - N/A   Clear
7:15 AM 47.1 °F 44.8 °F 92% 30.01 in 10.0 mi Calm Calm - N/A   Clear
7:35 AM 48.9 °F 45.9 °F 89% 30.02 in 10.0 mi Calm Calm - N/A   Clear
7:55 AM 51.4 °F 48.0 °F 88% 30.03 in 10.0 mi Calm Calm - N/A   Clear
8:15 AM 54.5 °F 50.0 °F 85% 30.03 in 10.0 mi Calm Calm - N/A   Clear
8:35 AM 56.7 °F 50.7 °F 80% 30.04 in 10.0 mi Calm Calm - N/A   Clear
8:55 AM 58.8 °F 51.4 °F 76% 30.04 in 10.0 mi Calm Calm - N/A   Clear
9:15 AM 60.1 °F 52.3 °F 76% 30.05 in 10.0 mi Calm Calm - N/A   Clear
9:35 AM 61.3 °F 52.7 °F 73% 30.05 in 10.0 mi Calm Calm - N/A   Clear
9:55 AM 63.0 °F 53.2 °F 71% 30.05 in 10.0 mi Calm Calm - N/A   Clear
10:15 AM 64.0 °F 52.9 °F 67% 30.05 in 10.0 mi Calm Calm - N/A   Clear
10:35 AM 65.7 °F 53.4 °F 65% 30.05 in 5.0 mi Calm Calm - N/A   Haze
10:55 AM 66.2 °F 52.2 °F 61% 30.05 in 7.0 mi East 3.5 mph - N/A   Clear
11:15 AM 67.3 °F 53.6 °F 61% 30.05 in 1.8 mi Calm Calm - N/A   Haze
11:35 AM 68.0 °F 51.4 °F 55% 30.04 in 10.0 mi Calm Calm - N/A   Clear
11:55 AM 68.4 °F 50.7 °F 53% 30.04 in 10.0 mi ESE 3.5 mph - N/A   Clear
12:15 PM 69.1 °F 49.8 °F 50% 30.03 in 10.0 mi ENE 4.6 mph - N/A   Clear
12:35 PM 69.1 °F 48.6 °F 48% 30.02 in 10.0 mi NNE 4.6 mph - N/A   Clear
12:55 PM 69.6 °F 49.5 °F 49% 30.02 in 10.0 mi NE 4.6 mph - N/A   Clear
1:15 PM 70.5 °F 49.5 °F 47% 30.02 in 10.0 mi ESE 3.5 mph - N/A   Clear
1:35 PM 69.6 °F 49.5 °F 49% 30.01 in 10.0 mi NW 5.8 mph - N/A   Clear
1:55 PM 71.8 °F 50.0 °F 46% 30.00 in 10.0 mi Calm Calm - N/A   Clear
2:15 PM 70.9 °F 49.3 °F 46% 30.00 in 10.0 mi Calm Calm - N/A   Clear
2:35 PM 72.5 °F 50.2 °F 45% 29.99 in 10.0 mi ENE 8.1 mph - N/A   Clear
2:55 PM 72.9 °F 50.5 °F 45% 29.99 in 10.0 mi East 5.8 mph - N/A   Clear
3:15 PM 72.1 °F 49.5 °F 45% 29.98 in 10.0 mi Calm Calm - N/A   Clear
3:35 PM 73.0 °F 49.6 °F 44% 29.97 in 10.0 mi ENE 3.5 mph - N/A   Clear
3:55 PM 72.7 °F 50.2 °F 45% 29.97 in 10.0 mi East 6.9 mph - N/A   Clear
4:15 PM 73.2 °F 49.6 °F 43% 29.97 in 10.0 mi Calm Calm - N/A   Clear
4:35 PM 72.7 °F 49.8 °F 44% 29.96 in 10.0 mi ENE 4.6 mph - N/A   Clear
4:55 PM 72.7 °F 48.4 °F 42% 29.96 in 10.0 mi ENE 5.8 mph - N/A   Clear
5:15 PM 72.7 °F 49.6 °F 44% 29.96 in 10.0 mi ENE 6.9 mph - N/A   Clear
5:35 PM 72.0 °F 48.7 °F 44% 29.96 in 10.0 mi ENE 4.6 mph - N/A   Clear
5:55 PM 71.8 °F 49.5 °F 45% 29.96 in 10.0 mi ENE 3.5 mph - N/A   Clear
6:15 PM 70.7 °F 51.6 °F 51% 29.96 in 10.0 mi East 3.5 mph - N/A   Clear
6:35 PM 68.7 °F 52.3 °F 56% 29.96 in 10.0 mi East 3.5 mph - N/A   Clear
6:55 PM 65.1 °F 53.2 °F 65% 29.96 in 10.0 mi Calm Calm - N/A   Clear
7:15 PM 62.2 °F 52.9 °F 71% 29.96 in 10.0 mi East 3.5 mph - N/A   Clear
7:35 PM 61.0 °F 53.4 °F 76% 29.96 in 10.0 mi East 3.5 mph - N/A   Clear
7:55 PM 59.4 °F 53.6 °F 81% 29.97 in 10.0 mi Calm Calm - N/A   Clear
8:15 PM 59.2 °F 53.2 °F 81% 29.97 in 10.0 mi ENE 3.5 mph - N/A   Clear
8:35 PM 57.6 °F 52.3 °F 83% 29.98 in 10.0 mi East 3.5 mph - N/A   Clear
8:55 PM 57.7 °F 51.8 °F 81% 29.98 in 10.0 mi ENE 3.5 mph - N/A   Clear
9:15 PM 57.9 °F 51.8 °F 80% 29.98 in 10.0 mi East 3.5 mph - N/A   Clear
9:35 PM 57.2 °F 51.8 °F 82% 29.98 in 10.0 mi East 3.5 mph - N/A   Clear
9:55 PM 56.5 °F 51.6 °F 84% 29.99 in 10.0 mi Calm Calm - N/A   Clear
10:15 PM 55.8 °F 51.3 °F 85% 29.99 in 10.0 mi Calm Calm - N/A   Clear
10:35 PM 54.7 °F 50.9 °F 87% 29.99 in 10.0 mi Calm Calm - N/A   Clear
10:55 PM 54.5 °F 50.9 °F 88% 30.00 in 10.0 mi Calm Calm - N/A   Clear
11:15 PM 53.8 °F 50.4 °F 88% 30.00 in 10.0 mi Calm Calm - N/A   Clear
11:35 PM 53.6 °F 50.4 °F 89% 30.00 in 10.0 mi Calm Calm - N/A   Clear
11:55 PM 53.1 °F 49.3 °F 87% 30.00 in 10.0 mi Calm Calm - N/A   Clear